Regional Weather Roundup
Issued by NWS Sterling, VA

Home | Current Version | Previous Version | Graphics & Text | Print | Product List | Glossary Off
Versions: 1 2 3 4 5 6 7 8 9 10 11 12 13 14 15 16 17 18 19 20 21 22 23 24 25 26 27 28 29 30 31 32 33 34 35 36 37 38 39 40 41 42 43 44 45 46 47 48 49 50

000
ASUS41 KLWX 012310
RWRLWX

REGIONAL WEATHER ROUNDUP
NATIONAL WEATHER SERVICE BALTIMORE MD/WASHINGTON DC
600 PM EST SUN FEB 01 2015

Note: "FAIR" indicates few or no clouds below 12,000 feet
with no significant weather and/or obstructions to visibility.
 TC=TEMPERATURE CELSIUS

 * =Non NWS site. Station does not report precipitation (e.g. rain,
    snow, etc.), thunder, or fog.

DCZ001-MDZ009-015-VAZ040>042-051-053>054-020000-
WASHINGTON METRO

CITY           SKY/WX    TMP DP  RH WIND       PRES   REMARKS
WASHINGTON NAT CLOUDY    42  17  36 SE5       30.08S
DULLES         CLOUDY    38  17  42 SE5       30.04F
ANDREWS AFB    CLOUDY    37  20  50 SE6       30.05F
FT BELVOIR     CLOUDY    39  18  42 SE3       30.07F
QUANTICO       CLOUDY    39  25  57 CALM      30.07F
COLLEGE PARK*  CLOUDY    37  23  56 CALM      30.07F
LEESBURG*      CLOUDY    39  21  48 SE5       30.04F
GAITHERSBURG*  CLOUDY    36  16  44 E5        30.08F

$$

MDZ006>007-011-014-020000-
BALTIMORE METRO

CITY           SKY/WX    TMP DP  RH WIND       PRES   REMARKS
BWI AIRPORT    CLOUDY    36  18  48 E6        30.07S
MD SCIENCE CTR   N/A     37  18  46 MISG      30.09S
MARTIN STATE   MOCLDY    36  27  69 SE5       30.12F
ANNAPOLIS      CLOUDY    37  22  54 SE9       30.09R
FORT MEADE*    CLOUDY    36  19  51 E5        30.09F

$$

MDZ012-015-019>023-020000-
MARYLAND EASTERN SHORE

CITY           SKY/WX    TMP DP  RH WIND       PRES   REMARKS
OCEAN CITY     CLOUDY    37  29  72 S6        30.15F
SALISBURY      MOCLDY    39  23  52 SE8       30.12F
BAY BRIDGE AP*   N/A     36  19  51 SE6       30.10R
CAMBRIDGE*     CLOUDY    37  23  56 S8        30.10F
EASTON*        CLOUDY    39  21  48 S7        30.13F

$$

MDZ017>025-020000-
SOUTHERN MARYLAND

CITY           SKY/WX    TMP DP  RH WIND       PRES   REMARKS
PATUXENT RIVER CLOUDY    38  23  55 S9        30.10S
ST INIGOES     NOT AVBL
LEONARDTOWN*   CLOUDY    37  25  60 SE9       30.10F

$$

MDZ003>005-020000-
NORTH CENTRAL MARYLAND

CITY           SKY/WX    TMP DP  RH WIND       PRES   REMARKS
FREDERICK*     NOT AVBL
HAGERSTOWN APT CLOUDY    35  24  64 E6        30.00F
WESTMINSTER*   CLOUDY    36  19  51 SE7       30.03F

$$

MDZ501>502-020000-
WESTERN MARYLAND

CITY           SKY/WX    TMP DP  RH WIND       PRES   REMARKS
OAKLAND*       CLOUDY    32 N/A N/A SE14      29.83F FOG     WCI  22
CUMBERLAND*    CLOUDY    36  30  80 CALM      30.00S

$$

VAZ025>031-020000-
SHENANDOAH VALLEY

CITY           SKY/WX    TMP DP  RH WIND       PRES   REMARKS
WINCHESTER*    CLOUDY    41  10  28 S8        29.99F
FRONT ROYAL*   CLOUDY    41  14  33 S6        29.98F
LURAY*         CLOUDY    41  19  42 SW5       29.96F
NEW MARKET*    CLOUDY    42  17  37 S3        29.95F
STAUNTON*      CLOUDY    42  13  30 S7        29.96F
WAYNESBORO*    CLOUDY    39  13  35 SE8       29.95F

$$

WVZ021-048>050-054>055-020000-
EASTERN WEST VIRGINIA PANHANDLE

CITY           SKY/WX    TMP DP  RH WIND       PRES   REMARKS
MARTINSBURG    CLOUDY    38  21  50 SE5       30.00F
PETERSBURG*    CLOUDY    38  28  69 NW6       29.92F

$$

VAZ036>039-050-020000-
CENTRAL FOOTHILLS

CITY           SKY/WX    TMP DP  RH WIND       PRES   REMARKS
CHARLOTTESVILL CLOUDY    40  16  37 N6        29.99F
CULPEPER*      CLOUDY    39  21  48 CALM      30.04F
ORANGE*        CLOUDY    39  21  48 CALM      30.03F
GORDONSVILLE*  CLOUDY    39  19  45 NE5       30.00F
WARRENTON*     CLOUDY    41  22  46 CALM      30.03F

$$

VAZ055>057-020000-
NORTH AND CENTRAL PIEDMONT

CITY           SKY/WX    TMP DP  RH WIND       PRES   REMARKS
FREDERICKSBRG* CLOUDY    44  19  37 SE3       30.04F
STAFFORD*      CLOUDY    42  12  29 CALM      30.08F

$$

NCZ024-NYZ072-PAZ021-071-VAZ022-071-020000-
OTHER REGIONAL OBSERVATIONS

CITY           SKY/WX    TMP DP  RH WIND       PRES   REMARKS
NEW YORK CITY  CLOUDY    35  19  52 CALM      30.14F
PHILADELPHIA   CLOUDY    38  23  55 S6        30.13S
PITTSBURGH     DRIZZLE   33  32  96 E3        29.78F FOG
ROANOKE        LGT RAIN  44  32  62 S7        29.97S
RICHMOND       CLOUDY    44  24  45 SE9       30.05F
RALEIGH        CLOUDY    53  28  38 S9        30.04F

$$

ANZ530>537-020000-
MARINE OBSERVATIONS

STATION/POSITION TIME  TEMP    WIND        PRES
                       AIR SEA DIR/SP/G
                 (UTC) (F)     (DEG/KT/KT) (MB)
THOMAS PT LIGHT  2300   37 35  160/ 13/ 15 1019.7S
BALT KEY BRIDGE  2300   37     140/ 10/ 11 1019.0R
COVE POINT       2300   36     190/ 17/ 20 1019.3R
LEWISETTA        2300   38 35  170/  8/ 10 1018.8F
SOLOMONS ISLAND  2300      37                N/A
PINEY POINT      2300          160/ 12/ 12   N/A

$$




USA.gov is the U.S. government's official web portal to all federal, state and local government web resources and services.